[Iaude] MPEC V15: 2016 UF101 [a=3.12,e=0.68,i=10.5,H=21.5,PHA]

mpec at si.edu mpec at si.edu
Wed Nov 2 15:06:10 EDT 2016


M.P.E.C. 2016-V15                                Issued 2016 Nov. 2, 19:01 UT
 
     The Minor Planet Electronic Circulars contain information on unusual
         minor planets and routine data on comets.  They are published
    on behalf of Division F of the International Astronomical Union by the
          Minor Planet Center, Smithsonian Astrophysical Observatory,
                          Cambridge, MA 02138, U.S.A.

             Prepared using the Tamkin Foundation Computer Network

                              MPC at CFA.HARVARD.EDU
            URL http://www.minorplanetcenter.net/    ISSN 1523-6714


                                  2016 UF101
 
Observations:
     K16UA1F* C2016 10 30.06761 21 43 09.75 +27 49 14.9          19.3 VqEV015G96
     K16UA1F  C2016 10 30.07189 21 43 11.54 +27 49 21.4          20.5 VqEV015G96
     K16UA1F  C2016 10 30.07618 21 43 13.31 +27 49 27.4          21.2 VqEV015G96
     K16UA1F  C2016 10 30.08046 21 43 15.16 +27 49 33.7          20.7 VqEV015G96
     K16UA1F HC2016 10 30.13997 21 43 39.33 +27 50 58.1                oEV015691
     K16UA1F HC2016 10 30.14460 21 43 41.46 +27 51 05.1                oEV015691
     K16UA1F  C2016 10 30.15219 21 43 44.34 +27 51 17.0          21.0 RoEV015926
     K16UA1F  C2016 10 30.15453 21 43 45.25 +27 51 20.0          21.1 VqEV015G96
     K16UA1F  C2016 10 30.15520 21 43 45.56 +27 51 21.6          20.7 RoEV015926
     K16UA1F  C2016 10 30.15560 21 43 45.74 +27 51 21.2          20.5 VqEV015G96
     K16UA1F  C2016 10 30.15677 21 43 46.17 +27 51 22.4          20.7 VqEV015G96
     K16UA1F  C2016 10 30.15821 21 43 46.80 +27 51 25.6          20.9 RoEV015926
     K16UA1F KC2016 10 30.82441 21 48 24.28 +28 06 44.1                SEV015595
     K16UA1F KC2016 10 30.82722 21 48 25.44 +28 06 48.2          20.6 VSEV015595
     K16UA1F  C2016 10 31.11284 21 50 23.98 +28 13 15.2          21.1 VqEV015I52
     K16UA1F  C2016 10 31.11411 21 50 24.46 +28 13 17.5          21.5 VqEV015I52
     K16UA1F  C2016 10 31.11718 21 50 25.71 +28 13 20.7          21.3 VqEV015I52
     K16UA1F  C2016 10 31.11990 21 50 26.79 +28 13 24.3          21.3 VqEV015I52
     K16UA1F KC2016 10 31.80527 21 55 07.32 +28 27 48.6          21.8 RoEV015K51
     K16UA1F KC2016 10 31.80753 21 55 08.19 +28 27 51.9          21.3 RoEV015K51
     K16UA1F KC2016 10 31.80985 21 55 09.13 +28 27 54.6          21.6 RoEV015K51
     K16UA1F KC2016 11 02.05379922 03 29.98 +28 51 56.9          21.0 VuEV015H21
     K16UA1F KC2016 11 02.06538822 03 34.47 +28 52 09.1          21.0 VuEV015H21
     K16UA1F KC2016 11 02.07905622 03 39.79 +28 52 23.9          21.1 VuEV015H21
     K16UA1F  C2016 11 02.08124 22 03 41.26 +28 52 27.9          22.0 VqEV015I52
     K16UA1F  C2016 11 02.08270 22 03 41.84 +28 52 30.4          21.5 VqEV015I52
     K16UA1F  C2016 11 02.08416 22 03 42.37 +28 52 31.9          22.5 VqEV015I52
     K16UA1F  C2016 11 02.08561 22 03 42.96 +28 52 34.1          21.5 VqEV015I52
     K16UA1F  C2016 11 02.15021 22 04 07.97 +28 53 44.7          20.8 RoEV015926
     K16UA1F  C2016 11 02.15416 22 04 09.42 +28 53 48.5          21.2 RoEV015926
     K16UA1F  C2016 11 02.15809 22 04 10.99 +28 53 53.1          20.8 RoEV015926
 
Observer details:
595 Farra d'Isonzo.  Observers F. Bressan, E. Pettarin, F. Piani.  Measurer
    E. Pettarin.  0.61-m f/4.0 reflector + CCD.
691 Steward Observatory, Kitt Peak.  Observer M. T. Read.  0.9-m f/3 reflector
    + CCD.
926 Tenagra II Observatory.  Observers M. Schwartz, P. R. Holvorcem.  Measurer
    M. Schwartz.  0.81-m f/7 Ritchey-Chretien + CCD.
G96 Mt. Lemmon Survey.  Observer D. C. Fuls.  Measurers E. J. Christensen,
    D. C. Fuls, A. R. Gibbs, A. D. Grauer, J. A. Johnson, R. A. Kowalski,
    S. M. Larson, G. J. Leonard, R. G. Matheny, R. L. Seaman, F. C. Shelly.
    1.5-m reflector + 10K CCD.
H21 Astronomical Research Observatory, Westfield.  Observer R. Holmes.
    Measurers S. Foglia, L. Buzzi, T. Linder, R. Holmes.  0.76-m f/3.0
    astrograph + CCD.
I52 Steward Observatory, Mt. Lemmon Station.  Observer G. J. Leonard.
    Measurers E. J. Christensen, D. C. Fuls, A. R. Gibbs, A. D. Grauer,
    J. A. Johnson, R. A. Kowalski, S. M. Larson, G. J. Leonard, R. G. Matheny,
    R. L. Seaman, F. C. Shelly.  1.0-m reflector + CCD.
K51 Osservatorio del Celado, Castello Tesino.  Observers G. Favero, R. Furgoni.
    Measurer R. Furgoni.  0.80-m f/4 reflector + CCD.
 
Orbital elements:
2016 UF101                                          PHA, Earth MOID = 0.0024 AU
Epoch 2016 July 31.0 TT = JDT 2457600.5                 MPC
M 351.54641              (2000.0)            P               Q
n   0.17908018     Peri.   20.19153     +0.90828195     +0.39851851
a   3.1172457      Node   315.63584     -0.40447889     +0.75877144
e   0.6818781      Incl.   10.49035     -0.10686780     +0.51521733
P   5.50           H   21.5           G   0.15           U   9
Residuals in seconds of arc
161030 G96  0.9-  0.2+    161030 926  0.2-  0.4+    161102 H21  0.1-  0.0
161030 G96  0.4-  0.4+    161030 595  0.4-  0.3-    161102 H21  0.1+  0.1+
161030 G96  0.2-  0.2+    161030 595  0.1-  0.1+    161102 I52  0.0   1.4-
161030 G96  1.2+  0.3+    161031 I52  0.3+  0.2+    161102 I52  0.2+  0.5-
161030 691  0.8-  1.1-    161031 I52  0.1-  0.8+    161102 I52  0.3-  0.6-
161030 691  2.4+  0.7-    161031 I52  0.1+  0.0     161102 I52  0.1+  0.0
161030 926  0.2-  0.3+    161031 I52  0.0   0.0     161102 926  0.4+  0.6+
161030 G96  0.8-  0.5+    161031 K51  0.2+  0.1-    161102 926  0.6-  0.2+
161030 926  0.3-  0.7+    161031 K51  0.2-  0.4+    161102 926  0.1+  0.7+
161030 G96  0.1-  0.2+    161031 K51  0.0   0.3+
161030 G96  0.8-  0.3-    161102 H21  0.0   0.3+

Ephemeris:
2016 UF101               a,e,i = 3.12, 0.68, 10                  q = 0.9917
Date    TT    R. A. (2000) Decl.     Delta      r     Elong.  Phase     V
2016 10 03    18 22 08.9 +04 28 43   0.2640  1.0200    86.7    78.3    21.4
...
2016 10 18    20 12 42.3 +20 08 20   0.2697  1.0882   102.8    63.2    21.1
...
2016 10 26    21 13 50.2 +25 52 56   0.2991  1.1375   111.3    54.5    21.1
...
2016 11 01    21 56 26.4 +28 31 53   0.3320  1.1791   116.6    48.8    21.3
2016 11 02    22 03 08.3 +28 51 02   0.3383  1.1864   117.4    48.0    21.3
2016 11 03    22 09 42.6 +29 08 19   0.3449  1.1937   118.1    47.2    21.4
...
2016 11 09    22 46 22.5 +30 18 29   0.3886  1.2394   121.7    42.9    21.6
...
2016 11 17    23 28 01.3 +30 47 43   0.4579  1.3040   124.5    38.7    21.9
...
2016 12 02    00 28 10.4 +30 12 05   0.6183  1.4327   124.9    34.3    22.7

A. U. Tomatic                (C) Copyright 2016 MPC           M.P.E.C. 2016-V15




More information about the Iaude mailing list